When you browse on this site, cookies collect data to enhance your experience and personalize the content and advertising you see.
Visit our Privacy Policy to learn more. By continuing to use the site, you agree to this use of cookies and data.
  • In Austria
  • List of Countries
  • For 7 days
  • Water Temperature
  • Weather Map
  • News
  • Weather Widgets
  • user-avatar
    Login

    Hourly Weather Moluprei

    Today, 27 January, Monday

    Time Temperature Precipitation Wind Pressure Humidity
    00:00 +27°C° 0 mm 2 mps 756 mmHg 67%
    01:00 +26°C° 0 mm 2 mps 756 mmHg 76%
    02:00 +26°C° 0 mm 2 mps 756 mmHg 79%
    03:00 +25°C° 0 mm 2 mps 755 mmHg 82%
    04:00 +25°C° 0 mm 2 mps 755 mmHg 85%
    05:00 +24°C° 0 mm 2 mps 756 mmHg 87%
    06:00 +24°C° 0 mm 1 mps 756 mmHg 88%
    07:00 +24°C° 0 mm 1 mps 757 mmHg 88%
    08:00 +27°C° 0 mm 1 mps 757 mmHg 77%
    09:00 +29°C° 0 mm 2 mps 757 mmHg 67%
    10:00 +32°C° 0 mm 2 mps 758 mmHg 56%
    11:00 +34°C° 0 mm 2 mps 757 mmHg 50%
    12:00 +36°C° 0 mm 2 mps 756 mmHg 43%
    13:00 +37°C° 0 mm 2 mps 755 mmHg 37%
    14:00 +38°C° 0 mm 2 mps 754 mmHg 34%
    15:00 +38°C° 0 mm 2 mps 754 mmHg 32%
    16:00 +39°C° 0 mm 2 mps 753 mmHg 29%
    17:00 +37°C° 0 mm 2 mps 753 mmHg 34%
    18:00 +35°C° 0 mm 3 mps 754 mmHg 39%
    19:00 +33°C° 0 mm 3 mps 754 mmHg 44%
    20:00 +30°C° 0 mm 3 mps 755 mmHg 51%
    21:00 +29°C° 0 mm 3 mps 755 mmHg 58%
    22:00 +27°C° 0 mm 3 mps 756 mmHg 64%
    23:00 +27°C° 0 mm 2 mps 756 mmHg 69%

    Tomorrow, 28 January, Tuesday

    Time Temperature Precipitation Wind Pressure Humidity
    00:00 +26°C° 0 mm 2 mps 756 mmHg 73%
    01:00 +25°C° 0 mm 2 mps 756 mmHg 78%
    02:00 +25°C° 0 mm 2 mps 756 mmHg 80%
    03:00 +24°C° 0 mm 2 mps 756 mmHg 82%
    04:00 +24°C° 0 mm 1 mps 755 mmHg 84%
    05:00 +24°C° 0 mm 1 mps 756 mmHg 86%
    06:00 +23°C° 0 mm 1 mps 757 mmHg 87%
    07:00 +23°C° 0 mm 1 mps 757 mmHg 88%
    08:00 +26°C° 0 mm 1 mps 757 mmHg 77%
    09:00 +28°C° 0 mm 2 mps 758 mmHg 66%
    10:00 +31°C° 0 mm 2 mps 758 mmHg 56%
    11:00 +34°C° 0 mm 2 mps 758 mmHg 48%
    12:00 +36°C° 0 mm 2 mps 757 mmHg 39%
    13:00 +38°C° 0 mm 2 mps 756 mmHg 31%
    14:00 +38°C° 0 mm 2 mps 755 mmHg 30%
    15:00 +38°C° 0 mm 2 mps 755 mmHg 30%
    16:00 +37°C° 0 mm 1 mps 754 mmHg 29%
    17:00 +36°C° 0 mm 2 mps 755 mmHg 34%
    18:00 +34°C° 0 mm 2 mps 755 mmHg 38%
    19:00 +31°C° 0 mm 2 mps 756 mmHg 43%
    20:00 +30°C° 0 mm 2 mps 756 mmHg 50%
    21:00 +29°C° 0 mm 2 mps 756 mmHg 57%
    22:00 +28°C° 0 mm 2 mps 757 mmHg 64%
    23:00 +27°C° 0 mm 2 mps 757 mmHg 68%

    Day after tomorrow, 29 January, Wednesday

    Time Temperature Precipitation Wind Pressure Humidity
    00:00 +26°C° 0 mm 2 mps 757 mmHg 73%
    01:00 +26°C° 0 mm 2 mps 757 mmHg 78%
    02:00 +25°C° 0 mm 2 mps 757 mmHg 80%
    03:00 +25°C° 0 mm 2 mps 757 mmHg 82%
    04:00 +24°C° 0 mm 1 mps 757 mmHg 84%
    05:00 +24°C° 0 mm 1 mps 757 mmHg 84%
    06:00 +24°C° 0 mm 1 mps 758 mmHg 84%
    07:00 +22°C° 0 mm 0 mps 759 mmHg 85%
    08:00 +26°C° 0 mm 1 mps 759 mmHg 74%
    09:00 +29°C° 0 mm 1 mps 759 mmHg 64%
    10:00 +31°C° 0 mm 1 mps 760 mmHg 54%
    11:00 +33°C° 0 mm 1 mps 759 mmHg 48%
    12:00 +35°C° 0 mm 1 mps 758 mmHg 43%
    13:00 +36°C° 0 mm 1 mps 758 mmHg 38%
    14:00 +36°C° 0 mm 1 mps 757 mmHg 38%
    15:00 +35°C° 0 mm 1 mps 756 mmHg 38%
    16:00 +34°C° 0 mm 1 mps 756 mmHg 38%
    17:00 +31°C° 0 mm 0 mps 756 mmHg 41%
    18:00 +29°C° 0 mm 0 mps 756 mmHg 45%
    19:00 +28°C° 0 mm 0 mps 756 mmHg 48%
    20:00 +29°C° 0 mm 1 mps 757 mmHg 49%
    21:00 +29°C° 0 mm 1 mps 757 mmHg 50%
    22:00 +28°C° 0 mm 1 mps 758 mmHg 51%
    23:00 +27°C° 0 mm 1 mps 758 mmHg 54%

    30 January, Thursday

    Time Temperature Precipitation Wind Pressure Humidity
    00:00 +27°C° 0 mm 2 mps 758 mmHg 57%
    01:00 +26°C° 0 mm 2 mps 758 mmHg 61%
    02:00 +25°C° 0 mm 2 mps 757 mmHg 65%
    03:00 +24°C° 0 mm 2 mps 757 mmHg 68%
    04:00 +24°C° 0 mm 1 mps 757 mmHg 72%
    05:00 +23°C° 0 mm 2 mps 758 mmHg 73%
    06:00 +23°C° 0 mm 2 mps 758 mmHg 74%
    07:00 +23°C° 0 mm 2 mps 759 mmHg 75%
    08:00 +25°C° 0 mm 2 mps 759 mmHg 68%
    09:00 +28°C° 0 mm 3 mps 759 mmHg 60%
    10:00 +30°C° 0 mm 3 mps 760 mmHg 52%
    11:00 +33°C° 0 mm 3 mps 759 mmHg 47%
    12:00 +34°C° 0 mm 3 mps 758 mmHg 43%
    13:00 +36°C° 0 mm 3 mps 757 mmHg 38%
    14:00 +36°C° 0 mm 3 mps 757 mmHg 37%
    15:00 +35°C° 0 mm 3 mps 756 mmHg 36%
    16:00 +35°C° 0 mm 3 mps 756 mmHg 36%
    17:00 +34°C° 0 mm 2 mps 756 mmHg 39%
    18:00 +31°C° 0 mm 2 mps 756 mmHg 42%
    19:00 +30°C° 0 mm 1 mps 756 mmHg 46%
    20:00 +29°C° 0 mm 1 mps 757 mmHg 48%
    21:00 +28°C° 0 mm 1 mps 757 mmHg 51%
    22:00 +28°C° 0 mm 2 mps 758 mmHg 53%
    23:00 +27°C° 0 mm 2 mps 758 mmHg 55%

    31 January, Friday

    Time Temperature Precipitation Wind Pressure Humidity
    00:00 +26°C° 0 mm 2 mps 758 mmHg 58%
    01:00 +26°C° 0 mm 2 mps 758 mmHg 60%
    02:00 +25°C° 0 mm 2 mps 758 mmHg 60%
    03:00 +25°C° 0 mm 2 mps 758 mmHg 60%
    04:00 +24°C° 0 mm 2 mps 758 mmHg 60%
    05:00 +24°C° 0 mm 2 mps 758 mmHg 62%
    06:00 +23°C° 0 mm 2 mps 759 mmHg 64%
    07:00 +23°C° 0 mm 2 mps 759 mmHg 67%
    08:00 +25°C° 0 mm 3 mps 759 mmHg 60%
    09:00 +28°C° 0 mm 4 mps 760 mmHg 54%
    10:00 +30°C° 0 mm 5 mps 760 mmHg 48%
    11:00 +33°C° 0 mm 5 mps 759 mmHg 44%
    12:00 +34°C° 0 mm 5 mps 758 mmHg 40%
    13:00 +35°C° 0 mm 4 mps 757 mmHg 36%
    14:00 +35°C° 0 mm 4 mps 757 mmHg 35%
    15:00 +36°C° 0 mm 3 mps 756 mmHg 34%
    16:00 +36°C° 0 mm 3 mps 756 mmHg 33%
    17:00 +34°C° 0 mm 2 mps 756 mmHg 36%
    18:00 +32°C° 0 mm 2 mps 756 mmHg 38%
    19:00 +31°C° 0 mm 1 mps 756 mmHg 41%
    20:00 +30°C° 0 mm 1 mps 757 mmHg 43%
    21:00 +30°C° 0 mm 1 mps 757 mmHg 45%
    22:00 +29°C° 0 mm 1 mps 757 mmHg 46%
    23:00 +29°C° 0 mm 1 mps 757 mmHg 47%

    1 February, Saturday

    Time Temperature Precipitation Wind Pressure Humidity
    00:00 +27°C° 0 mm 0 mps 757 mmHg 48%
    01:00 +27°C° 0 mm 0 mps 757 mmHg 49%
    02:00 +29°C° 0 mm 1 mps 757 mmHg 49%
    03:00 +28°C° 0 mm 1 mps 757 mmHg 50%
    04:00 +28°C° 0 mm 2 mps 757 mmHg 50%
    05:00 +28°C° 0 mm 3 mps 758 mmHg 52%
    06:00 +27°C° 0 mm 3 mps 758 mmHg 54%
    07:00 +27°C° 0 mm 3 mps 759 mmHg 56%
    08:00 +28°C° 0 mm 4 mps 759 mmHg 54%
    09:00 +29°C° 0 mm 4 mps 759 mmHg 53%
    10:00 +30°C° 0 mm 5 mps 759 mmHg 51%
    11:00 +33°C° 0 mm 4 mps 759 mmHg 46%
    12:00 +34°C° 0 mm 4 mps 758 mmHg 41%
    13:00 +36°C° 0 mm 4 mps 757 mmHg 35%
    14:00 +36°C° 0 mm 3 mps 756 mmHg 34%
    15:00 +36°C° 0 mm 3 mps 756 mmHg 33%
    16:00 +36°C° 0 mm 2 mps 755 mmHg 33%
    17:00 +34°C° 0 mm 2 mps 756 mmHg 36%
    18:00 +32°C° 0 mm 1 mps 756 mmHg 40%
    19:00 +28°C° 0 mm 0 mps 756 mmHg 44%
    20:00 +28°C° 0 mm 0 mps 757 mmHg 45%
    21:00 +27°C° 0 mm 0 mps 757 mmHg 46%
    22:00 +27°C° 0 mm 0 mps 758 mmHg 46%
    23:00 +29°C° 0 mm 1 mps 757 mmHg 47%
    Show more